This demonstration page uses our WeatherBlox Daily Observations layout. Learn more.

Left ArrowRight Arrow

39.51506, -84.39828

Hourly Observations for March 31, 2015

Temp ( °F °C ) Dew Point ( °F °C ) Humidity (%) Winds ( mph kmh ) Pressure ( in mb ) Visibility ( mi km ) Precip ( " mm )
12:15 am 00:15 Clear 47 8.5 35 1.4 61 61 SW 5 7 30.03 1017 10 16 N/A
12:35 am 00:35 Clear 44 6.9 33 0.3 63 63 SSW 5 7 30.00 1016 10 16 N/A
12:55 am 00:55 Clear 43 5.9 33 0.3 68 68 SSW 5 7 30.00 1016 10 16 N/A
1:15 am 01:15 Clear 43 6.2 33 0.4 67 67 SW 3 6 30.00 1016 10 16 N/A
1:35 am 01:35 Clear 43 6.1 32 0.1 66 66 SW 3 6 30.00 1016 10 16 N/A
1:55 am 01:55 Clear 42 5.4 33 0.4 70 70 N N/A 29.97 1015 10 16 N/A
2:15 am 02:15 Clear 40 4.7 33 0.5 74 74 N N/A 29.97 1015 10 16 N/A
2:35 am 02:35 Partly Cloudy 40 4.7 33 0.7 76 76 SW 5 7 29.97 1015 10 16 N/A
2:55 am 02:55 Mostly Cloudy 40 4.3 33 0.4 76 76 WSW 6 9 29.94 1014 10 16 N/A
3:15 am 03:15 Mostly Cloudy 42 5.5 32 undefined 68 68 SSW 7 11 29.94 1014 10 16 N/A
3:35 am 03:35 Partly Cloudy 42 5.6 31 -0.7 64 64 SSW 7 11 29.91 1013 10 16 N/A
3:55 am 03:55 Partly Cloudy 42 5.7 32 -0.1 67 67 N N/A 29.91 1013 10 16 N/A
4:15 am 04:15 Partly Cloudy 42 5.6 32 -0.1 67 67 SW 3 6 29.88 1012 10 16 N/A
4:35 am 04:35 Partly Cloudy 42 5.5 31 -0.8 64 64 SW 3 6 29.88 1012 10 16 N/A
4:55 am 04:55 Partly Cloudy 43 6.2 31 -0.8 61 61 SSW 3 6 29.88 1012 10 16 N/A
5:15 am 05:15 Partly Cloudy 44 6.9 32 0.2 63 63 SSW 6 9 29.85 1011 10 16 N/A
5:35 am 05:35 Partly Cloudy 48 8.9 32 0.2 55 55 SSW 7 11 29.85 1011 10 16 N/A
5:55 am 05:55 Partly Cloudy 47 8.2 31 -0.3 55 55 SW 5 7 29.85 1011 10 16 N/A
6:15 am 06:15 Partly Cloudy 47 8.2 31 -0.5 55 55 SW 6 9 29.85 1011 10 16 N/A
6:35 am 06:35 Mostly Cloudy 46 8 31 -0.6 55 55 SW 5 7 29.85 1011 10 16 N/A
6:55 am 06:55 Mostly Cloudy 49 9.6 32 undefined 52 52 SW 7 11 29.85 1011 10 16 N/A
7:15 am 07:15 Mostly Cloudy 49 9.6 31 -0.7 49 49 SW 13 20 29.83 1010 10 16 N/A
7:35 am 07:35 Mostly Cloudy 49 9.6 30 -1.3 47 47 SW 14 22 29.83 1010 10 16 N/A
7:55 am 07:55 Partly Cloudy 49 9.6 30 -1.2 47 47 SW 12 19 29.83 1010 10 16 N/A
8:15 am 08:15 Sunny 49 9.6 29 -1.4 47 47 SW 10 17 29.83 1010 10 16 N/A
8:35 am 08:35 Sunny 51 10.6 31 -0.7 46 46 SW 10 17 29.83 1010 10 16 N/A
8:55 am 08:55 Sunny 55 12.5 32 0.1 43 43 SW 10 17 29.83 1010 10 16 N/A
9:15 am 09:15 Sunny 55 12.5 31 -0.3 42 42 SW 9 15 29.83 1010 10 16 N/A
9:35 am 09:35 Sunny 57 13.8 32 undefined 39 39 SW 13 20 29.80 1009 10 16 N/A
9:55 am 09:55 Sunny 59 15.2 33 0.3 36 36 WSW 10 17 29.80 1009 10 16 N/A
10:15 am 10:15 Sunny 61 16 32 -0.2 33 33 W 21 33 29.80 1009 10 16 N/A
10:35 am 10:35 Sunny 62 16.6 32 -0.2 32 32 W 15 24 29.80 1009 10 16 N/A
10:55 am 10:55 Sunny 61 16.3 32 undefined 33 33 W 18 30 29.80 1009 10 16 N/A
11:15 am 11:15 Sunny 62 16.6 32 0.1 33 33 W 15 24 29.80 1009 10 16 N/A
11:35 am 11:35 Sunny 62 16.8 33 0.4 33 33 W 17 28 29.80 1009 10 16 N/A
11:55 am 11:55 Sunny 64 18 34 1.3 33 33 W 20 31 29.80 1009 10 16 N/A
12:15 pm 12:15 Sunny 64 18 32 undefined 30 30 W 23 37 29.80 1009 10 16 N/A
12:35 pm 12:35 Sunny 68 19.9 34 1.2 29 29 W 16 26 29.80 1009 10 16 N/A
12:55 pm 12:55 Sunny 68 20 33 0.8 28 28 W 17 28 29.80 1009 10 16 N/A
1:15 pm 13:15 Sunny 69 20.5 33 0.3 26 26 WNW 23 37 29.80 1009 10 16 N/A
1:35 pm 13:35 Sunny 69 20.8 31 -0.8 24 24 WNW 18 30 29.83 1010 10 16 N/A
1:55 pm 13:55 Sunny 69 20.5 32 undefined 25 25 NW 14 22 29.83 1010 10 16 N/A
2:15 pm 14:15 Sunny 67 19.5 32 -0.2 27 27 NNW 22 35 29.83 1010 10 16 N/A
2:35 pm 14:35 Partly Cloudy 69 20.7 34 0.9 27 27 WNW 17 28 29.83 1010 10 16 N/A
3:00 pm 15:00 Partly Cloudy 66 18.7 32 -0.1 28 28 WNW 13 20 29.83 1010 10 16 N/A
3:15 pm 15:15 Partly Cloudy 67 19.2 31 -0.3 27 27 WNW 18 30 29.83 1010 10 16 N/A
3:35 pm 15:35 Sunny 66 18.8 31 -0.5 27 27 NW 22 35 29.83 1010 10 16 N/A
3:55 pm 15:55 Sunny 63 17.1 31 -0.7 30 30 NW 20 31 29.83 1010 10 16 N/A
4:15 pm 16:15 Sunny 64 18 30 -1.3 27 27 NW 22 35 29.85 1011 10 16 N/A
4:35 pm 16:35 Partly Cloudy 64 18 28 -2 26 26 NW 13 20 29.85 1011 10 16 N/A
4:55 pm 16:55 Partly Cloudy 63 17.3 27 -2.9 25 25 NW 18 30 29.85 1011 10 16 N/A
5:15 pm 17:15 Partly Cloudy 62 16.6 28 -2.2 28 28 NW 20 31 29.85 1011 10 16 N/A
5:35 pm 17:35 Partly Cloudy 62 16.8 30 -1 30 30 NNW 12 19 29.88 1012 10 16 N/A
5:55 pm 17:55 Partly Cloudy 60 15.3 32 0.1 36 36 NNW 18 30 29.88 1012 10 16 N/A
6:15 pm 18:15 Sunny 60 15.3 32 0.1 36 36 N 16 26 29.88 1012 10 16 N/A
6:35 pm 18:35 Mostly Cloudy 60 15.3 33 0.5 37 37 NNW 15 24 29.91 1013 10 16 N/A
6:55 pm 18:55 Partly Cloudy 57 13.8 33 0.3 40 40 N 12 19 29.94 1014 10 16 N/A
7:15 pm 19:15 Sunny 55 12.5 35 1.6 48 48 N 14 22 29.94 1014 10 16 N/A
7:35 pm 19:35 Sunny 55 12.5 37 2.6 51 51 NNE 12 19 29.97 1015 10 16 N/A
8:15 pm 20:15 Clear 50 10.2 36 2.4 59 59 N 8 13 29.97 1015 10 16 N/A
8:35 pm 20:35 Clear 49 9.6 36 2.2 60 60 NNE 6 9 29.97 1015 10 16 N/A
8:55 pm 20:55 Clear 49 9.6 37 3 64 64 NE 6 9 30.00 1016 10 16 N/A
9:15 pm 21:15 Clear 49 9.6 38 3.2 65 65 NNE 6 9 30.00 1016 10 16 N/A
9:35 pm 21:35 Clear 47 8.2 36 2.2 66 66 N 5 7 30.00 1016 10 16 N/A
9:55 pm 21:55 Clear 47 8.2 37 2.5 68 68 NNE 3 6 30.03 1017 10 16 N/A
10:15 pm 22:15 Clear 44 6.8 35 1.5 69 69 N N/A 30.03 1017 10 16 N/A
10:35 pm 22:35 Clear 44 6.5 34 1.3 70 70 NNE 6 9 30.03 1017 10 16 N/A
10:55 pm 22:55 Clear 43 6.1 34 1.1 71 71 N N/A 30.03 1017 10 16 N/A
11:15 pm 23:15 Clear 43 6 34 1.1 71 71 NNE 3 6 30.03 1017 10 16 N/A
11:35 pm 23:35 Clear 42 5.4 33 0.8 73 73 N N/A 30.06 1018 10 16 N/A
11:55 pm 23:55 Clear 40 4.3 34 1 79 79 N N/A 30.09 1019 10 16 N/A

Powered by AerisWeather